星链-31943 (STARLINK-31943 )

导读 | 星芒AI

STARLINK-31943 是 SpaceX Starlink 卫星互联网项目中的一颗低轨卫星,属于第三代 Starlink(也称 Starlink V1.5 或 V2)系列。该卫星由 SpaceX 制造并发射,旨在为全球用户提供高速、低延迟的宽带互联网服务。它运行在约 550 公里的轨道高度,具备先进通信技术,支持更广的覆盖和更高的数据传输速率。STARLINK-31943 是 SpaceX 扩展其全球卫星网络、实现互联网普及目标的重要组成部分。

基本信息
目录编号:
59878
目录名称:
STARLINK-31943
国际标识:
2024-098W
轨道中心:
EARTH
卫星名称:
星链-31943
卫星全名:
星链-31943 (STARLINK-31943 )
卫星状态:
在轨 (已飞行528 天)
发射日期:
2024-05-24 UTC
国别 :
美国 (US)
星等 :
--
轨道信息
数据来源 国际轨道数据
星历时间: 2025-11-02T17:49:38+0800
19小时前
查看轨道信息
半长轴: 6861.193km
偏心率: 0.0000421
轨道倾角: 43.004°
近地点辐角 242.329°
升交点赤经 280.844°
平近点角 117.752°
近地点: 482.769km
远地点: 483.347km
周期: 94.267分钟
每日圈数: 15.275777
详细信息
固有亮度:
5
最大亮度:
1.5
卫星平台:
Starlink v2.0 mini
覆盖范围:
全球
运营商:
太空探索技术公司
运营商所在国:
美国
制造商(研发单位):
太空探索技术公司
制造商所在国:
美国
使用方式:
暂无
卫星简介
星链(Starlink)计划是由太空探索技术公司(SpaceX)提出的一个巨型低轨卫星互联网星座项目,计划在2019年至2024年间在太空搭建由约1.2万颗卫星组成的“星链”网络,其中1584颗将部署在地球上空550千米处的近地轨道,并从2020年开始工作。该卫星仍在工作。
2D轨道图
3D轨道图
轨道高度分析图
轨道倾角分析图
轨道综合分析图
查看轨道综合分析图